SCP
0 0 0 0 0 0 0 0 0 0 0 0 0 0 0 0 0 0 0 0 0 0 0 0 0 0 0 0 0 0 0 0 0 0 0 0 0 0 0 0 0 0 0 0
0 0 0 0 0 0 0 0 0 0 0 0 0 0 0 0 0 0 0 0 0 0 0 0 0 0 0 0 0 0 0 0 0 0 0 0 0 0 0 0 0 0 0 0
0 0 0 0 0 0 0 0 0 0 0 0 0 0 0 0 0 0 0 0 0 0 0 0 0 0 0 0 0 0 0 0 0 0 0 0 0 0 0 0 0 0 0 0
0 0 0 0 0 0 0 0 0 0 0 0 0 0 0 0 0 0 0 0 0 0 0 0 0 0 0 0 0 0 0 0 0 0 0 0 0 0 0 0 0 0 0 0
0 0 0 0 0 0 0 0 0 0 0 0 0 0 0 0 0 0 0 0 0 0 0 0 0 0 0 0 0 0 0 0 0 0 0 0 0 0 0 0 0 0 0 0
0 0 0 0 0 0 0 0 0 0 0 0 0 0 0 0 0 0 0 0 0 0 0 0 0 0 0 0 0 0 0 0 0 0 0 0 0 0 0 0 0 0 0 0
0 0 0 0 0 0 0 0 0 0 0 0 0 0 0 0 0 0 0 0 0 0 0 0 0 0 0 0 0 0 0 0 0 0 0 0 0 0 0 0 0 0 0 0
0 0 0 0 0 0 0 0 0 0 0 0 0 0 0 0 0 0 0 0 0 0 0 0 0 0 0 0 0 0 0 0 0 0 0 0 0 0 0 0 0 0 0 0
0 0 0 0 0 0 0 0 0 0 0 0 0 0 0 0 0 0 0 0 0 0 0 0 0 0 0 0 0 0 0 0 0 0 0 0 0 0 0 0 0 0 0 0
0 0 0 0 0 0 0 0 0 0 0 0 0 0 0 0 0 0 0 0 0 0 0 0 0 0 0 0 0 0 0 0 0 0 0 0 0 0 0 0 0 0 0 0
0 0 0 0 0 0 0 0 0 0 0 0 0 0 0 0 0 0 0 0 0 0 0 0 0 0 0 0 0 0 0 0 0 0 0 0 0 0 0 0 0 0 0 0
0 0 0 0 0 0 0 0 0 0 0 0 0 0 0 0 0 0 0 0 0 0 0 0 0 0 0 0 0 0 0 0 0 0 0 0 0 0 0 0 0 0 0 0
0 0 0 0 0 0 0 0 0 0 0 0 0 0 0 0 0 0 0 0 0 0 0 0 0 0 0 0 0 0 0 0 0 0 0 0 0 0 0 0 0 0 0 0
0 0 0 0 0 0 0 0 0 0 0 0 0 0 0 0 0 0 0 0 0 0 0 0 0 0 0 0 0 0 0 0 0 0 0 0 0 0 0 0 0 0 0 0
0 0 0 0 0 0 0 0 0 0 0 0 0 0 0 0 0 0 0 0 0 0 0 0 0 0 0 0 0 0 0 0 0 0 0 0 0 0 0 0 0 0 0 0
0 0 0 0 0 0 0 0 0 0 0 0 0 0 0 0 0 0 0 0 0 0 0 0 0 0 0 0 0 0 0 0 0 0 0 0 0 0 0 0 0 0 0 0
0 0 0 0 0 0 0 0 0 0 0 0 0 0 0 0 0 0 0 0 0 0 0 0 0 0 0 0 0 0 0 0 0 0 0 0 0 0 0 0 0 0 0 0
0 0 0 0 0 0 0 0 0 0 0 0 0 0 0 0 0 0 0 0 0 0 0 0 0 0 0 0 0 0 0 0 0 0 0 0 0 0 0 0 0 0 0 0
0 0 0 0 0 0 0 0 0 0 0 0 0 0 0 0 0 0 0 0 0 0 0 0 0 0 0 0 0 0 0 0 0 0 0 0 0 0 0 0 0 0 0 0
0 0 0 0 0 0 0 0 0 0 0 0 0 0 0 0 0 0 0 0 0 0 0 0 0 0 0 0 0 0 0 0 0 0 0 0 0 0 0 0 0 0 0 0
0 0 0 0 0 0 0 0 0 0 0 0 0 0 0 0 0 0 0 0 0 0 0 0 0 0 0 0 0 0 0 0 0 0 0 0 0 0 0 0 0 0 0 0
0 0 0 0 0 0 0 0 0 0 0 0 0 0 0 0 0 0 0 0 0 0 0 0 0 0 0 0 0 0 0 0 0 0 0 0 0 0 0 0 0 0 0 0
0 0 0 0 0 0 0 0 0 0 0 0 0 0 0 0 0 0 0 0 0 0 0 0 0 0 0 0 0 0 0 0 0 0 0 0 0 0 0 0 0 0 0 0
0 0 0 0 0 0 0 0 0 0 0 0 0 0 0 0 0 0 0 0 0 0 0 0 0 0 0 0 0 0 0 0 0 0 0 0 0 0 0 0 0 0 0 0
0 0 0 0 0 0 0 0 0 0 0 0 0 0 0 0 0 0 0 0 0 0 0 0 0 0 0 0 0 0 0 0 0 0 0 0 0 0 0 0 0 0 0 0
0 0 0 0 0 0 0 0 0 0 0 0 0 0 0 0 0 0 0 0 0 0 0 0 0 0 0 0 0 0 0 0 0 0 0 0 0 0 0 0 0 0 0 0
0 0 0 0 0 0 0 0 0 0 0 0 0 0 0 0 0 0 0 0 0 0 0 0 0 0 0 0 0 0 0 0 0 0 0 0 0 0 0 0 0 0 0 0
Wind_Speed
1 0 3 5 5 5 7 7 6 5 2 0 4 3 3 3 3 3 2 3 4 4 3 1 1 1 2 2 3 3 4 4 5 5 6 6 6 7 7 8 10 8 9 9
6 6 6 9 9 8 8 7 7 5 4 3 5 4 4 4 3 2 2 3 4 5 5 4 1 1 2 2 2 3 4 4 5 5 6 6 5 6 6 6 7 7 8 7
6 5 6 9 6 9 8 6 5 6 2 7 6 6 4 3 2 2 1 2 3 4 3 3 2 1 2 2 1 3 4 4 4 5 5 6 6 6 6 6 6 7 7 6
7 6 6 5 4 1 4 6 5 5 2 4 5 4 3 3 3 3 1 2 3 4 4 3 4 3 1 3 2 4 5 5 4 5 5 6 6 6 6 5 5 4 5 5
4 5 7 6 5 2 4 7 9 9 7 7 6 6 7 8 6 3 0 1 2 3 4 4 5 5 4 3 4 5 5 5 5 5 5 5 6 6 5 4 4 4 4 5
5 5 3 7 8 4 2 5 6 10 10 9 8 5 6 9 7 4 2 1 2 4 4 4 4 5 4 4 6 6 5 4 4 4 5 5 5 5 4 4 4 3 3 4
6 6 2 8 8 4 2 3 3 6 9 10 9 5 4 10 7 5 3 1 1 3 2 2 3 5 4 6 6 5 4 4 4 4 3 4 4 4 3 4 3 3 3 3
4 5 1 8 6 5 3 1 1 3 6 9 8 6 7 7 7 5 5 3 2 3 2 0 0 3 4 5 5 4 3 3 3 4 4 4 2 3 3 4 4 4 4 4
2 2 5 7 7 5 3 5 3 3 5 7 7 8 8 7 6 5 5 5 4 2 2 3 1 2 3 3 2 3 3 3 1 3 3 1 3 4 4 4 4 4 4 4
4 5 4 8 10 7 5 5 5 2 5 7 7 7 8 7 6 6 5 4 4 3 4 2 3 2 0 1 1 2 2 1 1 2 2 2 2 3 3 4 4 5 5 5
6 8 7 4 7 7 7 7 6 4 5 7 7 7 8 7 7 6 5 4 4 4 3 2 2 3 3 2 2 1 2 2 2 3 1 1 3 2 3 3 2 2 3 4
5 5 4 5 2 3 6 8 8 6 6 7 8 8 8 7 7 6 6 5 5 5 5 5 3 2 3 3 2 3 3 2 2 2 2 1 2 3 2 2 4 3 2 2
5 6 5 6 5 3 5 7 8 8 8 7 8 8 8 7 6 7 6 6 6 6 5 4 2 2 3 4 3 4 3 2 2 2 2 1 1 2 3 2 2 2 2 1
7 6 6 6 7 6 5 5 7 8 8 8 8 8 7 7 7 8 7 7 6 5 5 4 4 3 3 4 3 4 3 2 2 2 2 2 1 1 1 2 3 3 4 5
14 10 8 7 9 8 4 4 6 8 9 9 8 9 9 9 8 8 8 7 6 6 6 5 5 4 3 3 3 4 3 3 3 3 2 2 2 2 2 2 2 3 4 3
16 13 12 10 10 11 9 6 7 8 9 9 9 9 10 9 8 7 7 7 7 7 7 6 6 5 5 5 4 3 2 2 2 2 3 3 3 3 3 3 2 2 3 4
16 17 17 16 14 13 12 10 9 9 9 10 10 10 10 9 9 9 8 8 8 7 7 7 6 5 6 6 5 4 4 5 7 4 3 4 3 3 3 3 3 2 3 4
13 13 13 15 15 16 16 14 12 11 10 10 9 10 11 11 11 10 9 8 8 8 8 7 7 6 6 6 5 4 4 3 5 5 5 4 3 3 3 3 3 3 4 4
13 14 15 16 15 15 15 16 15 13 11 10 10 11 11 11 11 10 9 10 10 10 9 8 10 8 7 8 7 4 3 4 3 4 4 5 4 3 3 3 4 4 5 6
13 14 15 15 16 16 15 15 16 14 12 10 9 10 11 11 10 10 11 11 9 8 8 9 10 8 7 8 9 5 5 5 5 4 3 3 4 5 5 5 5 4 4 5
13 14 15 15 16 16 16 17 16 14 13 11 9 9 9 9 9 10 10 9 8 9 9 12 9 7 7 7 11 6 5 5 5 4 4 4 4 4 5 5 5 5 4 4
13 13 14 15 15 16 16 16 16 17 15 12 10 8 7 7 8 9 10 8 7 10 9 7 6 9 11 10 7 6 6 5 5 4 4 4 4 4 4 4 4 4 5 5
12 12 13 14 15 15 16 16 18 16 16 15 13 9 7 6 5 6 7 6 7 11 9 7 10 14 16 10 7 7 7 7 6 5 5 5 4 4 4 4 4 3 3 4
12 12 13 13 14 13 14 16 16 14 16 15 14 13 10 6 5 5 5 7 11 13 9 9 15 17 16 8 6 7 7 7 6 5 5 5 5 4 4 4 3 3 3 3
11 11 12 12 11 10 12 14 14 14 15 13 17 17 13 8 7 5 4 5 9 11 8 10 16 17 12 8 8 7 6 6 6 6 6 5 5 4 4 4 4 4 3 3
9 8 8 9 8 8 8 9 9 10 11 12 13 14 14 11 10 8 6 5 3 7 7 6 8 11 9 8 8 8 7 7 7 6 6 5 5 5 5 5 5 4 3 3
8 7 5 6 5 5 6 7 8 9 9 10 12 13 14 13 13 13 11 8 4 1 2 3 5 7 7 8 8 8 7 6 6 7 6 5 5 5 5 5 5 4 4 4
Wind_Direction
39 317 279 279 258 231 252 286 306 0 6 117 140 157 180 208 234 274 328 16 4 354 10 47 91 82 82 47 9 12 29 25 14 15 22 17 23 21 23 26 30 24 26 28
254 216 250 268 258 243 243 257 269 285 274 133 124 153 194 210 223 268 350 16 4 5 12 0 21 89 120 85 27 18 41 41 25 20 19 15 25 24 26 34 31 28 25 24
299 153 256 262 242 224 225 229 249 263 255 138 164 192 207 204 208 271 343 10 9 1 357 329 356 61 90 93 65 46 51 47 37 29 21 17 20 23 26 34 35 30 18 18
287 270 274 89 68 33 238 236 223 240 228 162 188 173 186 207 209 255 304 14 14 348 334 347 16 16 98 131 97 67 53 40 39 43 27 20 16 26 27 23 29 30 15 14
288 311 290 144 142 167 232 260 226 210 211 184 184 186 203 200 197 213 245 12 3 341 331 21 20 354 343 85 82 70 58 44 35 41 36 24 19 19 24 16 14 23 21 20
292 292 314 99 112 124 256 269 215 189 192 184 178 219 221 172 168 177 164 24 4 321 347 30 3 329 324 69 76 67 53 49 39 41 47 33 21 14 12 10 2 13 29 34
261 275 314 113 124 149 244 13 56 177 183 184 189 215 126 139 153 162 159 179 290 306 355 38 349 323 346 64 72 77 59 53 42 26 59 64 21 2 9 0 351 5 20 45
232 256 109 134 155 205 269 23 268 204 187 185 187 180 133 148 154 165 176 188 231 284 323 326 331 327 12 70 83 97 94 68 61 54 30 38 19 358 7 358 355 5 13 28
306 356 126 186 209 233 279 299 284 189 187 183 185 179 161 166 169 183 196 191 194 236 281 265 121 46 11 74 103 138 144 138 145 133 125 57 10 17 19 14 8 7 12 15
288 282 250 205 212 236 241 253 283 215 188 187 191 186 174 175 180 190 206 204 182 219 250 243 119 135 132 90 200 191 136 139 164 88 93 99 69 42 40 26 13 5 9 8
260 271 269 221 200 221 233 228 243 235 203 193 191 193 184 186 188 189 200 194 179 223 256 288 229 188 160 149 263 225 171 197 165 130 115 93 104 75 66 88 76 30 4 357
247 322 351 360 71 204 230 228 226 224 216 198 193 199 195 194 189 187 196 198 194 208 219 235 221 175 142 146 233 255 219 181 151 153 148 150 148 139 67 105 142 108 51 14
286 325 332 325 322 289 249 238 227 220 216 207 199 201 202 198 191 188 197 206 206 207 217 238 216 201 173 168 218 258 256 190 162 155 150 208 210 172 169 181 207 247 260 317
2 343 314 312 306 291 266 250 235 225 219 213 204 201 205 205 201 198 202 205 203 204 207 222 227 225 193 178 202 242 252 159 152 172 199 219 219 203 184 170 182 203 226 239
349 338 326 326 320 314 297 267 246 233 223 218 209 204 206 209 209 206 203 203 199 200 205 213 214 211 194 184 215 241 243 190 180 207 209 207 201 219 216 195 188 164 157 201
347 352 353 343 326 316 307 282 258 248 235 225 217 210 209 211 211 208 204 199 199 201 204 211 212 201 186 180 208 240 246 181 173 211 238 220 207 215 218 199 199 175 156 157
4 359 350 340 331 320 309 295 276 261 249 235 224 215 211 210 210 210 208 205 203 199 197 206 209 197 184 176 197 217 223 199 191 210 241 246 224 214 209 191 197 180 146 142
2 351 343 335 330 325 317 307 290 274 259 247 230 217 213 212 213 211 208 209 207 201 202 204 199 191 186 180 194 221 238 213 183 201 218 233 232 223 213 196 195 179 155 160
2 355 348 341 335 326 318 312 305 293 276 256 238 225 218 216 214 209 207 210 212 209 203 200 202 196 187 186 187 195 237 260 229 208 209 209 208 231 238 214 203 201 178 164
357 353 349 344 341 334 326 319 311 302 292 275 252 233 223 217 211 208 210 216 213 202 192 192 193 195 197 188 181 190 211 232 241 231 221 213 205 212 223 219 206 203 197 181
350 350 349 346 342 338 335 330 324 315 306 294 272 250 234 220 210 209 212 220 213 194 191 196 193 183 188 181 178 192 207 220 222 221 225 223 222 224 225 222 207 198 200 195
345 345 345 345 342 340 340 338 335 330 325 316 300 279 256 233 218 217 216 210 198 191 188 186 188 180 182 178 178 193 202 216 218 211 215 222 226 232 235 231 221 207 198 194
337 338 340 341 339 339 341 344 341 338 335 330 323 312 289 263 235 223 227 208 192 192 191 189 189 186 183 182 184 191 202 209 211 207 207 212 218 225 234 240 233 219 204 196
329 332 332 334 335 338 342 342 340 340 339 338 336 332 322 306 281 251 233 212 204 194 194 194 189 188 183 191 195 198 202 203 202 203 206 208 209 214 220 226 232 227 219 212
324 324 327 331 332 336 337 337 339 343 345 348 343 339 335 327 317 305 278 237 201 188 194 194 188 186 188 197 199 203 204 200 196 193 198 203 207 208 213 217 219 220 219 218
312 311 315 318 326 332 334 336 337 341 345 349 341 338 337 336 336 335 326 308 224 191 193 183 182 189 198 202 204 206 203 197 194 194 196 192 198 201 207 214 221 218 219 222
297 299 299 304 316 331 332 331 333 336 344 346 335 338 341 347 348 344 337 333 335 240 223 209 185 192 204 208 210 208 202 194 186 183 188 195 200 207 212 211 205 205 210 219